Wind_Speed
39 40 41 41 42 42 42 42 42 42 43 43 43 43 42 42 42 42 41 40 40 40 40 41 41 42 42 42 44 44 45 46 45 44 44 45 46 46 46 46 46 45 46
36 38 39 39 40 40 40 40 40 41 42 42 41 41 41 40 40 39 40 40 39 39 39 40 40 41 41 40 41 42 43 44 44 42 42 42 42 42 43 43 43 44 45
34 34 35 36 37 37 38 39 39 39 39 40 40 39 39 38 38 38 38 38 39 39 39 39 39 40 40 39 40 40 41 41 42 41 40 40 39 40 40 41 42 42 43
31 32 32 34 35 35 36 37 37 37 38 38 38 37 37 37 37 37 36 37 37 38 38 38 38 38 39 38 39 39 39 39 39 39 38 38 38 39 38 40 41 41 42
30 30 31 33 34 35 35 36 35 35 35 36 36 35 35 35 35 36 36 35 35 36 36 37 38 38 39 38 38 38 38 38 37 37 36 36 36 37 38 38 39 39 39
29 31 31 33 33 33 34 33 33 33 33 33 34 34 34 34 35 35 34 34 35 35 35 36 37 37 37 37 37 37 37 36 35 35 35 34 35 36 37 37 38 37 37
28 29 30 31 31 31 32 32 32 32 32 32 33 33 33 33 33 33 33 34 35 35 35 35 36 36 36 36 37 36 36 35 34 34 34 34 34 35 35 35 35 35 36
28 28 29 29 29 29 30 30 30 31 31 31 31 31 32 32 32 32 33 34 34 35 35 35 36 36 36 36 36 35 34 34 33 33 33 33 33 33 33 32 32 32 32
27 27 28 28 28 28 28 29 29 30 30 30 30 30 31 32 32 33 34 33 34 34 34 35 35 35 36 36 35 34 33 32 32 31 31 30 30 31 31 31 30 29 29
26 26 27 28 28 27 27 28 28 28 28 28 29 30 30 30 31 32 33 33 33 33 34 34 34 35 34 33 33 33 32 32 30 29 29 29 28 28 28 28 28 28 28
26 26 25 25 25 25 26 26 26 26 26 27 28 29 29 29 30 30 31 31 32 32 32 33 33 33 33 32 31 30 30 30 29 29 28 28 27 27 26 26 26 25 24
25 24 23 23 23 23 23 23 24 25 25 25 26 27 27 27 27 28 28 29 30 30 30 30 31 31 29 28 28 28 28 28 28 28 28 27 27 25 24 23 22 21 21
23 22 22 22 22 21 21 21 22 22 23 23 23 24 25 25 25 25 25 25 26 26 27 27 27 27 26 26 26 26 26 25 25 25 25 25 24 23 22 21 20 19 19
21 21 20 20 20 20 20 20 21 21 21 21 22 23 23 24 23 23 23 23 23 24 24 24 24 23 23 23 23 23 23 23 23 23 22 22 22 21 21 20 19 18 18
20 19 19 19 19 19 18 18 19 19 20 20 20 20 20 21 21 22 21 21 22 22 22 22 21 21 20 20 20 21 21 20 20 20 20 20 19 19 19 19 18 17 17
19 19 18 18 18 18 18 18 17 18 18 18 18 19 18 18 19 19 20 20 20 21 21 20 19 19 19 19 19 19 18 17 17 17 17 16 15 15 15 15 16 16 15
18 18 18 18 18 18 18 18 18 18 18 18 18 19 18 18 18 17 18 20 20 20 20 19 19 19 19 19 18 17 17 16 15 15 14 13 13 12 13 13 13 13 13
18 17 17 17 18 18 18 18 18 18 18 18 18 18 17 17 17 16 17 18 18 19 18 18 18 17 17 16 15 14 14 14 13 13 12 11 11 11 11 10 10 10 10
17 17 17 17 18 18 18 18 17 17 17 18 17 17 17 16 16 16 16 16 16 16 16 16 15 15 14 14 13 12 12 12 12 11 10 9 9 9 9 8 8 8 8
17 17 17 17 18 17 17 16 16 16 16 16 17 16 16 16 15 15 15 15 14 13 13 13 13 12 12 11 11 10 9 9 9 9 8 8 8 7 7 7 7 6 6
17 17 17 17 17 16 16 15 15 15 14 15 15 14 15 15 15 14 13 13 12 11 11 10 10 9 9 9 9 9 8 7 7 7 7 7 6 6 6 6 6 6 6
16 16 16 16 15 14 14 14 13 13 13 12 12 12 12 12 11 11 11 10 10 9 8 8 8 8 8 8 8 8 7 7 6 5 5 5 5 5 5 5 5 6 6
15 15 14 14 13 13 13 12 11 11 11 11 10 9 8 8 8 8 8 8 8 7 6 6 6 6 7 7 7 6 6 6 6 5 4 4 5 4 5 5 5 5 6
13 13 13 13 12 12 11 11 10 9 9 9 8 7 6 5 5 6 6 6 6 5 4 4 5 5 6 6 6 6 6 6 5 5 5 5 5 5 5 5 5 5 5
12 12 12 11 11 11 10 10 9 8 7 7 6 5 4 4 4 4 3 4 4 4 4 4 5 5 5 6 6 7 6 6 5 5 6 5 5 6 6 6 5 5 5
11 11 10 10 9 9 9 9 8 7 6 5 5 4 4 3 3 2 2 3 3 4 5 5 5 5 6 6 6 6 6 6 6 6 5 5 5 6 6 6 5 5 5
Wind_Direction
268 266 264 265 265 264 264 265 264 264 264 262 261 261 262 263 263 263 262 263 264 265 266 267 269 271 271 272 273 274 274 275 274 274 275 275 274 272 271 271 270 269 269
269 267 265 266 267 266 264 263 264 263 262 261 260 259 260 261 262 263 263 263 264 265 267 268 270 272 274 275 275 276 276 277 276 276 275 275 274 273 272 271 271 271 270
269 268 267 266 266 265 264 263 264 263 262 261 260 259 260 261 262 262 263 264 265 265 267 268 270 272 274 275 277 278 278 278 277 276 275 274 273 274 272 271 271 272 271
269 268 268 267 266 265 265 264 263 262 261 261 260 260 261 262 262 262 263 264 265 265 266 268 270 272 273 275 277 279 279 279 278 277 276 274 273 274 273 271 272 272 273
269 270 270 269 267 266 264 263 263 262 262 261 260 260 260 262 262 262 264 263 264 266 267 268 270 271 273 275 277 278 280 279 278 277 276 275 275 275 275 273 273 273 273
272 270 270 270 267 265 264 262 262 262 262 262 260 260 261 262 262 263 263 263 264 266 268 269 270 271 274 277 277 278 279 278 276 275 276 276 276 276 276 275 275 273 273
276 273 271 271 269 266 264 262 261 261 262 262 261 261 262 262 261 262 263 263 265 267 269 270 271 272 274 276 278 277 278 276 274 273 274 276 277 277 277 277 275 274 275
276 275 273 271 269 266 264 263 261 261 262 262 262 261 262 262 262 263 263 262 264 267 269 271 271 272 274 275 277 277 276 274 274 273 274 275 276 278 278 277 276 275 274
279 276 273 272 271 268 264 262 263 263 262 262 262 262 263 263 263 264 263 264 266 267 270 271 272 273 275 275 276 275 273 272 273 273 274 275 277 278 278 276 275 276 275
280 278 275 272 271 269 265 264 263 264 263 263 262 262 262 265 265 265 264 265 267 268 270 271 271 273 274 275 274 272 270 271 272 273 274 275 276 279 278 277 277 278 277
279 277 276 273 270 269 267 266 265 266 266 265 264 263 265 267 267 267 266 266 267 269 271 271 272 273 274 274 271 269 270 271 270 272 274 276 277 278 278 278 278 277 275
280 278 275 272 271 270 269 269 268 268 267 267 267 267 268 268 267 268 268 267 267 268 269 271 272 272 273 272 270 269 270 269 270 271 273 275 276 276 276 275 274 272 270
281 279 276 273 274 272 271 271 271 270 269 269 269 270 269 269 269 269 269 269 268 268 270 271 271 271 270 269 269 269 269 270 271 272 273 273 273 272 272 271 271 270 268
280 277 275 273 274 274 274 272 271 271 270 270 271 272 272 271 270 269 268 268 269 271 271 271 272 273 271 269 269 269 270 271 271 271 271 271 270 270 270 268 269 270 269
278 275 272 271 272 272 273 273 273 273 272 271 272 271 272 272 271 270 269 269 270 272 274 272 272 272 270 270 271 270 269 269 270 271 270 270 270 269 267 267 268 267 267
276 274 271 270 271 271 272 273 275 276 275 275 275 274 274 274 275 272 270 271 269 270 272 271 271 270 269 269 271 271 268 268 271 273 271 269 268 267 266 268 268 267 265
276 274 273 271 271 270 270 272 274 275 276 277 276 276 275 276 275 273 272 271 270 270 270 272 272 270 268 268 269 267 263 263 266 270 268 264 264 266 267 268 268 267 263
276 273 271 271 272 270 269 271 273 275 276 277 277 277 277 277 274 273 274 272 271 270 270 271 271 268 265 264 264 261 257 258 261 265 263 260 262 263 263 264 265 263 258
276 273 272 273 273 271 270 271 273 274 275 277 276 276 275 273 272 273 274 273 272 271 271 270 267 265 262 259 255 253 254 256 258 259 258 258 257 255 255 254 255 256 251
276 275 274 275 275 271 270 272 272 274 275 276 276 274 272 271 271 271 273 274 274 272 270 267 264 262 258 252 247 247 251 253 254 250 248 248 244 242 244 243 242 241 242
276 276 275 275 274 271 269 270 271 272 274 277 277 275 274 273 271 268 269 271 271 270 266 261 257 253 246 242 241 243 245 243 241 237 238 238 235 237 239 237 231 227 225
273 274 275 273 271 267 265 266 267 269 274 277 277 276 274 272 268 266 266 266 266 262 257 256 252 243 234 233 235 235 236 233 229 227 228 228 228 228 226 225 225 221 212
271 271 270 267 262 260 259 261 264 270 274 276 274 275 274 272 267 263 262 258 256 253 252 248 240 229 225 225 225 225 222 219 216 216 218 216 212 211 210 211 211 205 197
268 267 266 263 258 255 255 258 263 269 271 272 270 267 271 272 266 264 258 249 244 241 236 222 213 211 212 214 214 211 208 204 205 206 206 202 202 199 195 194 193 191 192
266 265 264 259 253 251 253 255 258 261 262 264 260 257 263 266 268 266 245 230 225 222 214 204 198 194 194 197 200 201 200 201 204 204 201 198 197 193 189 187 185 187 190
263 262 258 254 250 249 250 248 248 247 247 249 248 251 256 258 256 241 211 206 203 196 189 187 186 184 185 189 194 199 204 205 201 195 191 192 192 190 188 184 181 182 185
Height
5588 5588 5588 5588 5588 5588 5589 5589 5589 5589 5589 5590 5591 5592 5593 5594 5594 5595 5596 5596 5597 5597 5598 5598 5598 5597 5596 5595 5594 5593 5591 5590 5590 5589 5586 5584 5581 5580 5578 5577 5576 5576 5576
5578 5577 5577 5577 5577 5577 5577 5577 5577 5578 5578 5579 5580 5581 5582 5583 5584 5584 5585 5586 5587 5587 5587 5587 5587 5586 5586 5584 5583 5582 5580 5578 5577 5576 5574 5572 5570 5568 5567 5566 5565 5564 5563
5567 5567 5567 5567 5566 5566 5567 5567 5567 5567 5568 5568 5569 5570 5572 5573 5574 5574 5575 5576 5576 5577 5577 5576 5576 5576 5575 5574 5572 5571 5569 5567 5565 5563 5562 5560 5559 5557 5556 5555 5554 5553 5551
5558 5558 5557 5557 5557 5556 5556 5557 5557 5557 5558 5558 5559 5560 5561 5563 5564 5564 5565 5566 5566 5566 5566 5566 5566 5566 5565 5563 5562 5560 5558 5556 5554 5552 5551 5550 5548 5547 5545 5544 5543 5542 5540
5549 5549 5548 5547 5547 5547 5547 5547 5547 5547 5548 5548 5549 5551 5552 5553 5554 5554 5555 5556 5556 5556 5556 5556 5556 5555 5554 5553 5552 5550 5548 5546 5544 5542 5541 5540 5538 5536 5535 5533 5532 5531 5529
5540 5540 5539 5538 5537 5537 5537 5537 5537 5538 5538 5539 5540 5541 5542 5543 5544 5544 5545 5546 5546 5547 5546 5546 5546 5545 5544 5542 5541 5539 5537 5536 5534 5533 5532 5530 5528 5526 5524 5522 5521 5520 5519
5531 5530 5529 5528 5528 5527 5527 5527 5528 5529 5529 5530 5531 5531 5532 5533 5534 5534 5535 5536 5537 5537 5537 5536 5535 5535 5534 5532 5530 5529 5527 5525 5524 5523 5522 5520 5518 5517 5514 5513 5511 5509 5508
5523 5522 5520 5519 5519 5518 5518 5518 5519 5520 5520 5521 5521 5522 5523 5524 5524 5525 5525 5526 5527 5527 5527 5526 5525 5525 5524 5522 5521 5519 5517 5516 5515 5514 5513 5511 5509 5506 5505 5503 5501 5500 5499
5514 5513 5512 5511 5510 5510 5509 5510 5510 5511 5511 5512 5512 5513 5514 5514 5514 5515 5515 5516 5517 5517 5517 5516 5515 5515 5514 5512 5511 5510 5509 5507 5506 5504 5503 5502 5500 5498 5496 5495 5493 5492 5491
5506 5505 5504 5503 5502 5501 5501 5501 5501 5502 5503 5503 5504 5504 5504 5505 5505 5505 5505 5506 5507 5507 5506 5506 5505 5504 5503 5502 5501 5500 5500 5499 5497 5496 5495 5494 5492 5490 5488 5487 5485 5484 5483
5498 5497 5496 5495 5494 5494 5493 5493 5494 5494 5495 5495 5495 5495 5495 5496 5496 5496 5496 5496 5496 5496 5496 5496 5495 5494 5493 5492 5491 5491 5491 5490 5489 5488 5487 5486 5484 5483 5481 5479 5478 5477 5476
5490 5489 5488 5488 5487 5487 5486 5486 5486 5487 5487 5487 5487 5487 5487 5487 5487 5487 5486 5486 5486 5486 5486 5486 5485 5484 5484 5483 5483 5482 5482 5482 5481 5481 5480 5479 5478 5476 5475 5473 5472 5471 5471
5483 5482 5482 5481 5481 5480 5480 5480 5480 5480 5480 5480 5480 5480 5480 5480 5479 5479 5478 5478 5477 5477 5477 5477 5476 5476 5475 5475 5475 5474 5474 5474 5473 5473 5472 5472 5471 5470 5469 5468 5467 5466 5466
5477 5476 5476 5475 5475 5474 5474 5474 5474 5474 5473 5473 5473 5473 5473 5472 5472 5471 5471 5470 5470 5469 5469 5469 5468 5468 5467 5467 5467 5467 5467 5466 5466 5466 5466 5465 5465 5464 5463 5463 5462 5461 5461
5471 5470 5470 5469 5469 5468 5468 5468 5468 5467 5467 5467 5466 5466 5466 5465 5465 5464 5463 5463 5463 5462 5462 5462 5461 5461 5461 5461 5460 5460 5460 5460 5460 5460 5459 5459 5459 5458 5458 5458 5457 5457 5456
5465 5465 5464 5464 5463 5463 5463 5462 5462 5462 5461 5460 5459 5459 5459 5459 5458 5457 5457 5456 5456 5456 5456 5455 5455 5455 5455 5454 5454 5454 5454 5454 5454 5454 5454 5454 5454 5453 5453 5453 5453 5453 5452
5460 5459 5459 5458 5458 5457 5457 5457 5456 5456 5455 5454 5454 5453 5453 5452 5452 5451 5450 5450 5450 5449 5449 5449 5449 5449 5448 5448 5447 5447 5448 5448 5449 5449 5449 5449 5449 5449 5449 5449 5449 5449 5449
5454 5453 5453 5453 5452 5452 5452 5451 5451 5450 5450 5449 5449 5448 5447 5446 5446 5445 5445 5444 5444 5443 5443 5443 5443 5442 5442 5442 5442 5442 5443 5443 5444 5444 5445 5445 5445 5445 5446 5446 5446 5446 5446
5448 5448 5448 5447 5447 5446 5446 5446 5445 5445 5444 5444 5443 5442 5442 5441 5440 5440 5439 5439 5438 5438 5438 5437 5437 5437 5436 5437 5437 5438 5439 5439 5440 5441 5441 5441 5442 5442 5443 5443 5443 5443 5443
5443 5442 5442 5442 5441 5441 5440 5440 5440 5439 5439 5438 5437 5437 5436 5436 5436 5435 5434 5434 5433 5433 5432 5432 5432 5432 5432 5432 5433 5434 5435 5436 5436 5437 5438 5439 5439 5440 5440 5441 5441 5442 5442
5437 5437 5436 5436 5436 5435 5435 5435 5435 5434 5434 5433 5432 5432 5431 5431 5430 5430 5430 5429 5429 5428 5428 5428 5428 5428 5428 5429 5430 5431 5432 5433 5434 5435 5436 5436 5437 5438 5438 5439 5439 5440 5440
5432 5432 5431 5431 5430 5430 5430 5430 5430 5430 5429 5429 5428 5427 5426 5426 5425 5425 5425 5425 5425 5425 5425 5425 5425 5425 5426 5427 5428 5429 5430 5431 5432 5433 5434 5434 5435 5436 5436 5437 5438 5438 5439
5427 5427 5426 5426 5426 5426 5426 5427 5426 5426 5425 5425 5424 5424 5423 5422 5422 5421 5422 5422 5422 5423 5423 5423 5423 5423 5424 5425 5426 5428 5429 5430 5431 5432 5433 5433 5434 5435 5435 5436 5437 5437 5438
5422 5422 5422 5422 5422 5422 5423 5423 5423 5423 5422 5422 5421 5421 5420 5420 5419 5419 5419 5419 5420 5421 5421 5421 5422 5422 5423 5424 5425 5426 5427 5429 5430 5431 5432 5432 5433 5434 5434 5435 5436 5437 5438
5418 5418 5418 5418 5418 5419 5419 5420 5420 5420 5420 5419 5419 5419 5419 5418 5418 5418 5418 5418 5419 5419 5420 5420 5421 5422 5422 5423 5424 5425 5426 5428 5429 5429 5430 5431 5432 5433 5434 5435 5436 5437 5438
5414 5415 5415 5415 5415 5416 5416 5417 5417 5417 5417 5417 5417 5417 5417 5417 5417 5417 5417 5417 5418 5418 5419 5420 5421 5421 5422 5423 5424 5425 5426 5427 5428 5428 5429 5430 5431 5432 5433 5435 5436 5436 5437